Location: Betz
(49.1556°N, 2.9558°E)
Time: 22:36:20
(UTC+00:00)

Cosmos 614 Rocket - Pass Details

Date: 18 September 2019
Orbit: 733 x 764 km, 74.1° (Epoch: 13 October)

Event Time Altitude Azimuth Distance (km) Brightness Sun altitude
Rises 19:49:19 0° 334° (NNW) 3,240 8.1 -18.7°
Reaches altitude 10° 19:51:43 10° 332° (NNW) 2,308 7.3 -19.1°
Maximum altitude 19:56:54 65° 251° (WSW) 836 4.3 -19.8°
Enters shadow 20:00:11 22° 175° (S) 1,602 5.3 -20.3°
